Regional Weather Roundup
Issued by NWS

Home | Current Version | Previous Version | Graphics & Text | Print | Product List | Glossary On
Versions: 1 2 3 4 5 6 7 8 9 10 11 12 13 14 15 16 17 18 19 20 21 22 23 24 25 26 27 28 29 30 31 32 33 34 35 36 37 38 39 40 41 42 43 44 45 46 47 48 49 50
000
ASUS43 KOAX 011802
RWRNE

WEATHER ROUNDUP FOR NEBRASKA
NATIONAL WEATHER SERVICE OMAHA NE
100 PM CDT MON SEP 01 2014

NOTES: SATELLITE DATA IS BEING USED TO AUGMENT CLOUD COVER ABOVE
       12000 FEET.
       "FAIR" INDICATES FEW OR NO CLOUDS BELOW 12,000 FEET WITH NO
       SIGNIFICANT WEATHER AND/OR OBSTRUCTIONS TO VISIBILITY.

  * THESE STATIONS DO NOT REPORT WEATHER SUCH AS RAIN...SNOW OR FOG.

NEZ001>004-019>022-054>056-011900-
NEBRASKA PANHANDLE

CITY           SKY/WX    TMP DP  RH WIND       PRES   REMARKS
SCOTTSBLUFF    SUNNY     73  50  44 SE9       29.98F
6HR MIN TEMP:  48; 6HR MAX TEMP:  73;

ALLIANCE       SUNNY     72  45  37 SW10G18   29.98F
6HR MIN TEMP:  45; 6HR MAX TEMP:  72;

CHADRON        MOSUNNY   72  48  42 SW5       29.95F
6HR MIN TEMP:  46; 6HR MAX TEMP:  73;

KIMBALL        MOSUNNY   70  45  39 SW7       30.03F
SIDNEY         MOSUNNY   71  48  43 SW13      30.04F
6HR MIN TEMP:  47; 6HR MAX TEMP:  72; 6HR PCP: TRACE;

$$

NEZ057>060-069>072-079>082-011900-
SOUTHWEST NEBRASKA

CITY           SKY/WX    TMP DP  RH WIND       PRES   REMARKS
NORTH PLATTE   MOSUNNY   73  54  51 W9        29.98F
6HR MIN TEMP:  48; 6HR MAX TEMP:  73;

IMPERIAL       PTSUNNY   68  52  56 CALM      30.01F
6HR MIN TEMP:  52; 6HR MAX TEMP:  68; 6HR PCP: TRACE;

LEXINGTON      MOSUNNY   70  55  58 W5        29.97F
MCCOOK         CLOUDY    70  56  61 VRB5      29.99F
6HR MIN TEMP:  55; 6HR MAX TEMP:  70; 6HR PCP: TRACE;

OGALLALA       MOSUNNY   69  49  49 W5        30.00S
$$

NEZ005>010-023>029-035>040-094-011900-
NORTH CENTRAL NEBRASKA

CITY           SKY/WX    TMP DP  RH WIND       PRES   REMARKS
VALENTINE      SUNNY     75  49  39 W8        29.93S
6HR MIN TEMP:  50; 6HR MAX TEMP:  75;

AINSWORTH      SUNNY     72  51  47 W7        29.94S
BROKEN BOW     MOSUNNY   73  52  47 NW3       29.95S
6HR MIN TEMP:  55; 6HR MAX TEMP:  73;

O`NEILL        SUNNY     75  53  47 NW12      29.91S
ORD            SUNNY     74  53  48 VRB5      29.91S
6HR MIN TEMP:  55; 6HR MAX TEMP:  75;

THEDFORD       SUNNY     74  52  46 CALM      29.96F
$$

NEZ041-046>049-061>064-073>077-083>087-011900-
SOUTH CENTRAL NEBRASKA

CITY           SKY/WX    TMP DP  RH WIND       PRES   REMARKS
GRAND ISLAND   SUNNY     77  59  53 VRB7      29.93F
6HR MIN TEMP:  57; 6HR MAX TEMP:  77;

AURORA         MOSUNNY   74  58  58 N3        29.92S
HASTINGS       MOSUNNY   74  52  46 NW7       29.94F
6HR MIN TEMP:  57; 6HR MAX TEMP:  75;

HEBRON         PTSUNNY   69  58  67 CALM      29.93F
HOLDREGE       MOSUNNY   70  55  59 CALM      29.96F
KEARNEY *      SUNNY     73  55  53 W8        29.97R
$$

NEZ011>018-030>034-042>045-011900-
NORTHEAST NEBRASKA

CITY           SKY/WX    TMP DP  RH WIND       PRES   REMARKS
NORFOLK        SUNNY     76  60  57 NW8       29.89R
6HR MIN TEMP:  59; 6HR MAX TEMP:  76;

ALBION         SUNNY     75  56  51 W5        29.90F
BLAIR          PTSUNNY   73  62  66 W8        29.89R
FREMONT        SUNNY     75  62  62 W8        29.89S
TEKAMAH        MOSUNNY   75  64  68 NW5       29.88R
6HR MIN TEMP:  62; 6HR MAX TEMP:  75;

WAYNE          MOSUNNY   76  63  65 W7        29.88S
$$

NEZ050>053-065>068-078-088>093-011900-
SOUTHEAST NEBRASKA

CITY           SKY/WX    TMP DP  RH WIND       PRES   REMARKS
LINCOLN        MOSUNNY   79  60  52 NW8G16    29.90S
6HR MIN TEMP:  62; 6HR MAX TEMP:  79;

OMAHA EPPLEY   MOSUNNY   76  62  62 NW7       29.88S
6HR MIN TEMP:  67; 6HR MAX TEMP:  76;

BEATRICE       PTSUNNY   72  63  73 W8        29.92R
FALLS CITY     MOSUNNY   75  65  70 W9        29.90R
6HR MIN TEMP:  68; 6HR MAX TEMP:  78;

NEBRASKA CITY  MOSUNNY   74  62  65 NW8       29.88F
PLATTSMOUTH    SUNNY     76  61  60 W8        29.88F
$$

NEZ044-045-051>053-067-011900-
OMAHA AREA

CITY           SKY/WX    TMP DP  RH WIND       PRES   REMARKS
OMAHA EPPLEY   MOSUNNY   76  62  62 NW7       29.88S
6HR MIN TEMP:  67; 6HR MAX TEMP:  76;

BLAIR          PTSUNNY   73  62  66 W8        29.89R
FREMONT        SUNNY     75  62  62 W8        29.89S
MILLARD        MOSUNNY   75  62  63 W8        29.88S
OFFUTT AFB     SUNNY     77  65  68 W8        29.87S
PLATTSMOUTH    SUNNY     76  61  60 W8        29.88F
WAHOO          FAIR      75  60  57 NW9       29.88F
$$


USA.gov is the U.S. government's official web portal to all federal, state and local government web resources and services.